Find Starlink 11083

NORAD ID: 59424 Int'l Des: 2024-065 Owner: SPXS Country: US Constellation: starlink operational
又名: STARLINK-11083 [DTC] celestrak
LEOCIRCULAR

当前视图

正在加载3D地球...

About Starlink 11083

Starlink 11083 (NORAD 59424) is a starlink constellation satellite (v2 mini d2c) launched Apr 7, 2024 by SPXS of US. It operates in LEO, CIRCULAR orbit with a mass of 960.00 kg.

即将过境

Passes for default location (London). Set your location on the main map for personalized predictions.

高度历史

Loading altitude history...

两行轨道根数

1 59424U 24065D 26237.67847683 .00003133 00000-0 30705-4 0 9999
2 59424 53.1607 340.9098 0000461 345.9882 14.1123 15.69706447138015
Epoch: Aug 25, 2026 • Age: 17 hours

当前状态

高度 374.0 km
远地点 / 近地点 N/A
速度 7.69 km/s
星下点 -43.12°S, 174.01°W
发射日期 Apr 7, 2024
运行时间 2.3 years
类型 internet

技术详情

分类 Payload
质量 960.00 kg
干质量 910.00 kg
总质量 960.00 kg
长度 0.30 m
直径 4.10 m
跨度 29.00 m
形状 Box + pan
制造商 SPXS
平台类型 Starlink V2MD
阶段状态 In Orbit
所有者/国家 SPXS/US

Most Searched